When you browse on this site, cookies collect data to enhance your experience and personalize the content and advertising you see.
Visit our Privacy Policy to learn more. By continuing to use the site, you agree to this use of cookies and data.
  • în România
  • Lista ţărilor
  • Pe 7 zile
  • Temperatura apei
  • Meteo pe hartă
  • Widget-uri
  • user-avatar
    Intrare

    Meteo pe oră la Córdoba

    Astăzi, 2 Iunie, Marţi

    Timp Temperatura Precipitaţii Vânt Presiune Umiditate
    00:00 +8°C° 0 mm 2 m/s 728 mmHg 53%
    01:00 +8°C° 0 mm 2 m/s 728 mmHg 54%
    02:00 +8°C° 0 mm 2 m/s 728 mmHg 55%
    03:00 +8°C° 0 mm 2 m/s 728 mmHg 56%
    04:00 +8°C° 0 mm 1 m/s 727 mmHg 58%
    05:00 +8°C° 0 mm 1 m/s 727 mmHg 59%
    06:00 +8°C° 0 mm 1 m/s 727 mmHg 58%
    07:00 +9°C° 0 mm 1 m/s 727 mmHg 57%
    08:00 +9°C° 0 mm 1 m/s 727 mmHg 55%
    09:00 +10°C° 0 mm 2 m/s 727 mmHg 49%
    10:00 +14°C° 0 mm 2 m/s 727 mmHg 42%
    11:00 +16°C° 0 mm 3 m/s 727 mmHg 36%
    12:00 +17°C° 0 mm 3 m/s 726 mmHg 34%
    13:00 +19°C° 0 mm 4 m/s 726 mmHg 33%
    14:00 +20°C° 0 mm 4 m/s 725 mmHg 32%
    15:00 +18°C° 0 mm 4 m/s 724 mmHg 34%
    16:00 +17°C° 0 mm 4 m/s 724 mmHg 36%
    17:00 +15°C° 0 mm 4 m/s 723 mmHg 39%
    18:00 +13°C° 0 mm 4 m/s 724 mmHg 43%
    19:00 +12°C° 0 mm 4 m/s 724 mmHg 46%
    20:00 +10°C° 0 mm 3 m/s 724 mmHg 50%
    21:00 +10°C° 0 mm 4 m/s 724 mmHg 50%
    22:00 +10°C° 0 mm 4 m/s 724 mmHg 51%
    23:00 +10°C° 0 mm 4 m/s 724 mmHg 52%

    Mâine, 3 Iunie, Miercuri

    Timp Temperatura Precipitaţii Vânt Presiune Umiditate
    00:00 +8°C° 0 mm 4 m/s 724 mmHg 54%
    01:00 +8°C° 0 mm 4 m/s 724 mmHg 55%
    02:00 +8°C° 0 mm 4 m/s 724 mmHg 57%
    03:00 +8°C° 0 mm 3 m/s 724 mmHg 61%
    04:00 +8°C° 0 mm 3 m/s 724 mmHg 64%
    05:00 +7°C° 0 mm 3 m/s 724 mmHg 67%
    06:00 +7°C° 0 mm 2 m/s 724 mmHg 68%
    07:00 +7°C° 0 mm 2 m/s 725 mmHg 69%
    08:00 +7°C° 0 mm 2 m/s 725 mmHg 70%
    09:00 +9°C° 0 mm 2 m/s 726 mmHg 64%
    10:00 +12°C° 0 mm 2 m/s 726 mmHg 58%
    11:00 +13°C° 0 mm 3 m/s 726 mmHg 51%
    12:00 +13°C° 0 mm 3 m/s 726 mmHg 52%
    13:00 +14°C° 0 mm 2 m/s 726 mmHg 52%
    14:00 +14°C° 0 mm 2 m/s 726 mmHg 52%
    15:00 +13°C° 0 mm 2 m/s 726 mmHg 55%
    16:00 +13°C° 0 mm 1 m/s 726 mmHg 57%
    17:00 +13°C° 0 mm 1 m/s 726 mmHg 60%
    18:00 +12°C° 0.1 mm 1 m/s 727 mmHg 63%
    19:00 +12°C° 0.1 mm 2 m/s 728 mmHg 66%
    20:00 +12°C° 0.1 mm 2 m/s 728 mmHg 70%
    21:00 +10°C° 0.2 mm 2 m/s 729 mmHg 72%
    22:00 +10°C° 0.2 mm 2 m/s 729 mmHg 74%
    23:00 +10°C° 0.2 mm 2 m/s 730 mmHg 76%

    Poimâine, 4 Iunie, Joi

    Timp Temperatura Precipitaţii Vânt Presiune Umiditate
    00:00 +10°C° 0.2 mm 2 m/s 730 mmHg 78%
    01:00 +10°C° 0.2 mm 2 m/s 730 mmHg 79%
    02:00 +9°C° 0.2 mm 2 m/s 730 mmHg 81%
    03:00 +10°C° 0.1 mm 1 m/s 729 mmHg 81%
    04:00 +10°C° 0.1 mm 1 m/s 729 mmHg 80%
    05:00 +11°C° 0.1 mm 1 m/s 729 mmHg 80%
    06:00 +11°C° 0.1 mm 1 m/s 729 mmHg 78%
    07:00 +11°C° 0.1 mm 1 m/s 729 mmHg 76%
    08:00 +11°C° 0.1 mm 1 m/s 729 mmHg 73%
    09:00 +12°C° 0 mm 1 m/s 729 mmHg 69%
    10:00 +13°C° 0 mm 1 m/s 729 mmHg 65%
    11:00 +13°C° 0 mm 1 m/s 729 mmHg 60%
    12:00 +13°C° 0.1 mm 1 m/s 729 mmHg 60%
    13:00 +14°C° 0.1 mm 1 m/s 728 mmHg 59%
    14:00 +14°C° 0.1 mm 1 m/s 728 mmHg 59%
    15:00 +13°C° 0.2 mm 1 m/s 727 mmHg 61%
    16:00 +13°C° 0.2 mm 1 m/s 727 mmHg 63%
    17:00 +12°C° 0.2 mm 0 m/s 727 mmHg 66%
    18:00 +13°C° 0.3 mm 1 m/s 727 mmHg 69%
    19:00 +12°C° 0.3 mm 1 m/s 727 mmHg 72%
    20:00 +12°C° 0.3 mm 1 m/s 727 mmHg 75%
    21:00 +12°C° 0.2 mm 1 m/s 727 mmHg 76%
    22:00 +12°C° 0.2 mm 1 m/s 728 mmHg 76%
    23:00 +12°C° 0.2 mm 1 m/s 728 mmHg 77%

    5 Iunie, Vineri

    Timp Temperatura Precipitaţii Vânt Presiune Umiditate
    00:00 +11°C° 0.9 mm 1 m/s 728 mmHg 79%
    01:00 +11°C° 0.9 mm 1 m/s 728 mmHg 81%
    02:00 +11°C° 0.9 mm 1 m/s 728 mmHg 83%
    03:00 +10°C° 2 mm 2 m/s 727 mmHg 84%
    04:00 +9°C° 2 mm 2 m/s 727 mmHg 85%
    05:00 +9°C° 2 mm 3 m/s 726 mmHg 86%
    06:00 +9°C° 0.2 mm 2 m/s 726 mmHg 83%
    07:00 +10°C° 0.2 mm 2 m/s 726 mmHg 80%
    08:00 +11°C° 0.2 mm 1 m/s 726 mmHg 77%
    09:00 +12°C° 0 mm 2 m/s 726 mmHg 70%
    10:00 +14°C° 0 mm 2 m/s 726 mmHg 63%
    11:00 +14°C° 0 mm 3 m/s 726 mmHg 56%
    12:00 +16°C° 0 mm 3 m/s 726 mmHg 51%
    13:00 +17°C° 0 mm 3 m/s 725 mmHg 47%
    14:00 +18°C° 0 mm 3 m/s 725 mmHg 43%
    15:00 +17°C° 0 mm 3 m/s 725 mmHg 45%
    16:00 +16°C° 0 mm 3 m/s 724 mmHg 46%
    17:00 +16°C° 0 mm 2 m/s 724 mmHg 48%
    18:00 +15°C° 0 mm 2 m/s 725 mmHg 52%
    19:00 +14°C° 0 mm 2 m/s 725 mmHg 56%
    20:00 +12°C° 0 mm 2 m/s 725 mmHg 59%
    21:00 +12°C° 0 mm 2 m/s 725 mmHg 60%
    22:00 +12°C° 0 mm 2 m/s 725 mmHg 61%
    23:00 +11°C° 0 mm 1 m/s 725 mmHg 62%

    6 Iunie, Sâmbătă

    Timp Temperatura Precipitaţii Vânt Presiune Umiditate
    00:00 +11°C° 0 mm 1 m/s 725 mmHg 63%
    01:00 +11°C° 0 mm 1 m/s 725 mmHg 64%
    02:00 +10°C° 0 mm 1 m/s 724 mmHg 65%
    03:00 +10°C° 0 mm 1 m/s 724 mmHg 67%
    04:00 +10°C° 0 mm 1 m/s 724 mmHg 69%
    05:00 +9°C° 0 mm 1 m/s 724 mmHg 70%
    06:00 +10°C° 0 mm 1 m/s 725 mmHg 69%
    07:00 +10°C° 0 mm 1 m/s 725 mmHg 67%
    08:00 +10°C° 0 mm 1 m/s 725 mmHg 65%
    09:00 +13°C° 0 mm 1 m/s 725 mmHg 57%
    10:00 +16°C° 0 mm 1 m/s 725 mmHg 50%
    11:00 +18°C° 0 mm 2 m/s 725 mmHg 42%
    12:00 +19°C° 0 mm 2 m/s 724 mmHg 40%
    13:00 +20°C° 0 mm 3 m/s 724 mmHg 38%
    14:00 +21°C° 0 mm 3 m/s 723 mmHg 36%
    15:00 +20°C° 0 mm 3 m/s 723 mmHg 40%
    16:00 +19°C° 0 mm 3 m/s 723 mmHg 45%
    17:00 +17°C° 0 mm 2 m/s 722 mmHg 49%
    18:00 +16°C° 0 mm 2 m/s 723 mmHg 53%
    19:00 +15°C° 0 mm 2 m/s 723 mmHg 57%
    20:00 +14°C° 0 mm 2 m/s 723 mmHg 60%
    21:00 +13°C° 0 mm 2 m/s 723 mmHg 61%
    22:00 +13°C° 0 mm 2 m/s 723 mmHg 62%
    23:00 +12°C° 0 mm 2 m/s 723 mmHg 62%

    7 Iunie, Duminică

    Timp Temperatura Precipitaţii Vânt Presiune Umiditate
    00:00 +12°C° 0 mm 1 m/s 723 mmHg 64%
    01:00 +11°C° 0 mm 1 m/s 724 mmHg 65%
    02:00 +11°C° 0 mm 1 m/s 724 mmHg 66%
    03:00 +11°C° 0 mm 1 m/s 724 mmHg 68%
    04:00 +10°C° 0 mm 1 m/s 724 mmHg 70%
    05:00 +9°C° 0 mm 0 m/s 724 mmHg 71%
    06:00 +10°C° 0 mm 0 m/s 724 mmHg 70%
    07:00 +10°C° 0 mm 0 m/s 725 mmHg 68%
    08:00 +11°C° 0 mm 1 m/s 726 mmHg 66%
    09:00 +13°C° 0 mm 1 m/s 726 mmHg 60%
    10:00 +16°C° 0 mm 2 m/s 726 mmHg 53%
    11:00 +18°C° 0 mm 2 m/s 727 mmHg 47%
    12:00 +19°C° 0 mm 3 m/s 726 mmHg 46%
    13:00 +20°C° 0 mm 4 m/s 725 mmHg 45%
    14:00 +21°C° 0 mm 4 m/s 725 mmHg 44%
    15:00 +20°C° 0 mm 4 m/s 725 mmHg 48%
    16:00 +19°C° 0 mm 3 m/s 725 mmHg 52%
    17:00 +18°C° 0 mm 2 m/s 725 mmHg 56%
    18:00 +17°C° 0 mm 3 m/s 725 mmHg 60%
    19:00 +14°C° 0 mm 3 m/s 725 mmHg 64%
    20:00 +13°C° 0 mm 3 m/s 725 mmHg 68%
    21:00 +13°C° 0 mm 3 m/s 725 mmHg 69%
    22:00 +13°C° 0 mm 3 m/s 725 mmHg 70%
    23:00 +13°C° 0 mm 3 m/s 725 mmHg 71%
    Arată mai mult